Location: Pinawa
(50.1500°N, 95.8830°W)
Time: 18:32:18
(UTC-05:00)

Amateur Radio Satellites - All Passes

Search period start: 29 August 2015 18:02
Search period end: 30 August 2015 18:02
Location: Pinawa, 50.1500°N, 95.8830°W

Satellite Date Start Highest point End Downlink Frequencies (MHz)
Time Altitude Azimuth
HORYU 2 29 Aug 18:04:08 18:05:56 12° 275° (W) 18:07:30 437.375
AIST 2 29 Aug 18:06:23 18:10:34 60° 125° (SE) 18:14:46 435.215
AO-7 29 Aug 18:18:11 18:24:10 20° 275° (W) 18:29:46 29.400- 29.500
Cosmos 2499 29 Aug 18:18:42 18:25:40 27° 281° (W) 18:32:07 435.465 / 435.565
Cubesat XI-IV 29 Aug 18:27:11 18:32:28 70° 72° (ENE) 18:37:48 437.490
HO-68 29 Aug 18:30:29 18:34:31 17° 43° (NE) 18:38:48 435.675
RS-15 29 Aug 18:34:56 18:45:59 85° 313° (NW) 18:57:36 29.354- 29.394
CANX-2 29 Aug 19:12:38 19:13:09 10° 55° (NE) 19:13:53 2200.000
BRITE-PL 29 Aug 19:12:45 19:16:38 31° 65° (ENE) 19:20:50 437.365/2234.400
CUTE-I 29 Aug 19:13:11 19:18:23 53° 260° (W) 19:23:36 437.470
MOZHAYETS 4 29 Aug 19:18:13 19:21:51 23° 298° (WNW) 19:25:25
BEESAT 3 29 Aug 19:20:05 19:22:39 16° 338° (NNW) 19:25:08 437.485
AIST 1 29 Aug 19:21:56 19:25:46 30° 70° (ENE) 19:29:37
CUBESAT XI-V 29 Aug 19:27:05 19:31:40 58° 100° (E) 19:36:16 437.345
BEESAT 2 29 Aug 19:28:13 19:30:54 16° 337° (NNW) 19:33:32 435.950
O/OREOS (USA 219) 29 Aug 19:28:23 19:31:28 19° 102° (ESE) 19:34:41 437.305
SEEDS 29 Aug 19:37:09 19:39:01 13° 58° (ENE) 19:41:02 437.485
AIST 2 29 Aug 19:45:44 19:49:26 27° 326° (NW) 19:53:06 435.215
CINEMA 3 29 Aug 19:47:54 19:50:38 16° 56° (NE) 19:53:34 145.822/145.860
Cosmos 2491 29 Aug 19:52:35 20:00:32 38° 64° (ENE) 20:08:35 435.465 / 435.565
GOMX 1 29 Aug 19:53:53 19:58:12 45° 68° (ENE) 20:02:52 467.674
STRAND 1 29 Aug 19:54:24 19:58:54 31° 94° (E) 20:03:28 437.568
COMPASS 1 29 Aug 20:02:14 20:04:57 17° 61° (ENE) 20:07:47 437.405
Cubesat XI-IV 29 Aug 20:09:14 20:13:11 20° 271° (W) 20:16:59 437.490
YUBILEINY 29 Aug 20:11:31 20:16:01 16° 72° (ENE) 20:21:00 435.215
HO-68 29 Aug 20:13:58 20:20:55 57° 64° (ENE) 20:27:57 435.675
AAUSAT CUBESAT 2 29 Aug 20:14:24 20:17:20 19° 62° (ENE) 20:20:22 437.432
DOVE 4 29 Aug 20:19:20 20:23:48 50° 69° (ENE) 20:28:36 437.250
CUTE 1.7 + AOD 2 29 Aug 20:30:39 20:34:44 45° 70° (ENE) 20:38:51 437.475
CANX-2 29 Aug 20:44:03 20:48:19 67° 73° (ENE) 20:52:36 2200.000
RS-15 29 Aug 20:49:28 21:00:05 44° 342° (NNW) 21:11:09 29.354- 29.394
BRITE-PL 29 Aug 20:51:07 20:55:09 35° 266° (W) 20:59:27 437.365/2234.400
DELFI C3 29 Aug 20:56:21 20:58:48 16° 61° (ENE) 21:01:21 145.870
PRISM 29 Aug 20:57:35 21:01:42 86° 104° (ESE) 21:05:49 437.425
AIST 1 29 Aug 20:59:35 21:03:24 31° 269° (W) 21:07:12
BEESAT 3 29 Aug 21:01:31 21:02:10 10° 1° (N) 21:02:51 437.485
Oscar 11 29 Aug 21:03:00 21:06:41 28° 65° (ENE) 21:10:25 145.826/435.025
CUBESAT XI-V 29 Aug 21:05:15 21:08:46 21° 299° (WNW) 21:12:13 437.345
O/OREOS (USA 219) 29 Aug 21:05:57 21:10:29 63° 301° (WNW) 21:15:02 437.305
BEESAT 2 29 Aug 21:09:44 21:10:32 10° 1° (N) 21:11:21 435.950
SEEDS 29 Aug 21:09:55 21:14:12 88° 70° (ENE) 21:18:28 437.485
HUMSAT D 29 Aug 21:12:28 21:13:51 12° 56° (NE) 21:15:24 437.325/437.525
CINEMA 3 29 Aug 21:22:24 21:27:06 88° 83° (E) 21:32:05 145.822/145.860
AIST 2 29 Aug 21:27:31 21:29:21 12° 349° (N) 21:31:06 435.215
CUBEBUG 2 29 Aug 21:29:09 21:33:40 53° 70° (ENE) 21:38:19 437.445
GOMX 1 29 Aug 21:32:50 21:36:37 25° 270° (W) 21:40:34 467.674
STRAND 1 29 Aug 21:33:27 21:38:15 42° 294° (WNW) 21:43:03 437.568
COMPASS 1 29 Aug 21:36:01 21:40:12 64° 258° (WSW) 21:44:24 437.405
ZACube-1 29 Aug 21:40:01 21:44:18 42° 68° (ENE) 21:48:40 437.345
UWE-3 29 Aug 21:41:12 21:45:43 55° 70° (ENE) 21:50:19 435.000/436.395/437.385
FUNcube-1 29 Aug 21:46:27 21:50:48 47° 69° (ENE) 21:55:14 145.935
AAUSAT CUBESAT 2 29 Aug 21:48:27 21:52:35 55° 260° (W) 21:56:44 437.432
Cosmos 2491 29 Aug 21:49:24 21:58:00 62° 267° (W) 22:06:33 435.465 / 435.565
50 SAT 29 Aug 21:53:14 21:54:36 12° 58° (ENE) 21:56:07 437.505
DOVE 4 29 Aug 21:58:08 22:01:54 24° 271° (W) 22:05:48 437.250
HO-68 29 Aug 22:02:28 22:09:01 36° 265° (W) 22:15:32 435.675
YUBILEINY 29 Aug 22:02:36 22:11:14 67° 94° (E) 22:20:00 435.215
CUTE 1.7 + AOD 2 29 Aug 22:07:27 22:10:53 22° 269° (W) 22:14:13 437.475
ESTCUBE 1 29 Aug 22:18:51 22:21:35 16° 58° (ENE) 22:24:25 437.505/2401.250
CANX-2 29 Aug 22:22:07 22:24:45 15° 273° (W) 22:27:15 2200.000
DX 1 29 Aug 22:26:51 22:30:45 33° 66° (ENE) 22:34:42 434.975-435.025
DELFI C3 29 Aug 22:29:24 22:33:26 65° 258° (WSW) 22:37:28 145.870
PRISM 29 Aug 22:34:34 22:36:35 13° 303° (WNW) 22:38:27 437.425
Oscar 11 29 Aug 22:38:40 22:42:45 38° 263° (W) 22:46:50 145.826/435.025
BEESAT 3 29 Aug 22:38:54 22:41:39 17° 25° (NNE) 22:44:26 437.485
AISAT 29 Aug 22:39:28 22:43:18 30° 65° (ENE) 22:47:14 437.250
UNISAT 6 29 Aug 22:42:32 22:44:37 13° 85° (E) 22:46:52 437.425
UKube-1 29 Aug 22:42:59 22:47:03 43° 68° (ENE) 22:51:11 .
HUMSAT D 29 Aug 22:44:32 22:48:51 74° 75° (ENE) 22:53:14 437.325/437.525
BEESAT 2 29 Aug 22:47:26 22:50:09 17° 24° (NNE) 22:52:54 435.950
CUBEBUG 1 29 Aug 22:47:54 22:51:16 23° 63° (ENE) 22:54:43 437.445
O/OREOS (USA 219) 29 Aug 22:48:33 22:50:55 14° 323° (NW) 22:53:11 437.305
SEEDS 29 Aug 22:49:11 22:50:41 11° 275° (W) 22:51:59 437.485
Cosmos 2504 29 Aug 22:52:42 22:58:30 23° 77° (ENE) 23:04:48 435.465 / 435.565
SPROUT 29 Aug 22:55:34 22:56:14 10° 55° (NE) 22:57:06 437.525
CINEMA 3 29 Aug 23:02:37 23:05:08 14° 277° (W) 23:07:30 145.822/145.860
RS-15 29 Aug 23:05:05 23:15:49 42° 14° (NNE) 23:27:03 29.354- 29.394
CUBEBUG 2 29 Aug 23:06:59 23:10:41 22° 270° (W) 23:14:21 437.445
AIST 2 29 Aug 23:07:40 23:09:37 13° 13° (NNE) 23:11:36 435.215
VELOX 1 29 Aug 23:07:52 23:12:08 52° 70° (ENE) 23:16:28 145.980
AUBIESAT-1 29 Aug 23:08:44 23:09:37 11° 89° (E) 23:10:41 437.475
M-CUBED/EXP-1 PRIME 29 Aug 23:10:46 23:12:51 14° 91° (E) 23:15:00 437.505
TIGRISAT 29 Aug 23:10:57 23:14:37 23° 91° (E) 23:18:16 435.000
ZACube-1 29 Aug 23:16:54 23:20:48 27° 268° (W) 23:24:41 437.345
UWE-3 29 Aug 23:19:00 23:22:35 21° 271° (W) 23:26:07 435.000/436.395/437.385
QB50P1 29 Aug 23:19:22 23:20:07 10° 84° (E) 23:21:08 145.935-145.965
FUNcube-1 29 Aug 23:23:37 23:27:20 24° 269° (W) 23:31:03 145.935
50 SAT 29 Aug 23:24:33 23:28:32 88° 78° (ENE) 23:32:31 437.505
ANTELSAT 29 Aug 23:26:44 23:30:55 33° 95° (E) 23:35:01 437.575/2403.000
Cosmos 2491 29 Aug 23:48:45 23:53:11 14° 289° (WNW) 23:57:07 435.465 / 435.565
ESTCUBE 1 29 Aug 23:53:27 23:57:56 77° 257° (WSW) 00:02:27 437.505/2401.250
YUBILEINY 30 Aug 00:00:50 00:08:49 36° 298° (WNW) 00:16:44 435.215
DX 1 30 Aug 00:03:09 00:07:01 31° 265° (W) 00:10:53 434.975-435.025
TISAT 1 30 Aug 00:05:24 00:08:54 26° 64° (ENE) 00:12:30 437.305
AISAT 30 Aug 00:15:46 00:19:49 35° 264° (W) 00:23:54 437.250
BEESAT 3 30 Aug 00:16:16 00:20:20 66° 47° (NE) 00:24:19 437.485
POLYITAN 1 30 Aug 00:17:07 00:21:11 39° 97° (E) 00:25:14 437.675
UNISAT 6 30 Aug 00:17:28 00:22:10 86° 282° (WNW) 00:26:42 437.425
SWISSCUBE 30 Aug 00:18:50 00:20:11 11° 52° (NE) 00:21:45 437.505
UKube-1 30 Aug 00:19:50 00:23:23 24° 267° (W) 00:26:52 .
POPSAT HIP 1 30 Aug 00:20:37 00:24:43 41° 98° (E) 00:28:48 437.405
HUMSAT D 30 Aug 00:22:45 00:25:10 14° 274° (W) 00:27:25 437.325/437.525
DUCHIFAT 1 30 Aug 00:23:10 00:27:15 42° 98° (E) 00:31:20 145.980
CUBEBUG 1 30 Aug 00:23:12 00:27:23 47° 261° (W) 00:31:36 437.445
BEESAT 2 30 Aug 00:24:54 00:28:59 62° 46° (NE) 00:32:59 435.950
SPROUT 30 Aug 00:27:17 00:31:33 67° 73° (ENE) 00:35:51 437.525
CUSAT 1 30 Aug 00:31:19 00:34:45 28° 86° (E) 00:39:09 437.405
QB50P2 30 Aug 00:36:54 00:41:12 62° 101° (E) 00:45:27 145.880/145.840
NANOSAT C BR1 30 Aug 00:39:44 00:44:01 63° 101° (E) 00:48:17 145.865
BUGSAT 1 30 Aug 00:40:48 00:44:50 41° 98° (E) 00:48:53 437.445
AUBIESAT-1 30 Aug 00:40:57 00:45:08 86° 296° (WNW) 00:48:56 437.475
Cosmos 2504 30 Aug 00:41:24 00:49:36 87° 98° (E) 00:58:17 435.465 / 435.565
DANDE 30 Aug 00:43:42 00:46:24 20° 84° (E) 00:49:46 436.750
M-CUBED/EXP-1 PRIME 30 Aug 00:44:03 00:48:17 69° 293° (WNW) 00:52:07 437.505
AIST 2 30 Aug 00:45:40 00:49:27 31° 36° (NE) 00:53:12 435.215
VELOX 1 30 Aug 00:45:43 00:49:02 20° 269° (W) 00:52:16 145.980
TIGRISAT 30 Aug 00:47:09 00:51:39 49° 291° (WNW) 00:56:01 435.000
QB50P1 30 Aug 00:52:25 00:56:46 85° 104° (ESE) 01:01:04 145.935-145.965
ITUPSAT 1 30 Aug 00:53:53 00:57:13 20° 59° (ENE) 01:00:40 437.325
50 SAT 30 Aug 01:03:06 01:03:43 10° 275° (W) 01:04:08 437.505
ANTELSAT 30 Aug 01:03:29 01:07:43 35° 294° (WNW) 01:11:48 437.575/2403.000
RS-15 30 Aug 01:18:38 01:30:22 76° 45° (NE) 01:42:36 29.354- 29.394
BEESAT 30 Aug 01:27:20 01:31:39 36° 66° (ENE) 01:36:01 436.000
TISAT 1 30 Aug 01:40:35 01:44:32 38° 263° (W) 01:48:31 437.305
KKS-1 30 Aug 01:40:41 01:41:27 10° 53° (NE) 01:42:26 437.445
SWISSCUBE 30 Aug 01:52:30 01:57:11 62° 72° (ENE) 02:01:56 437.505
POLYITAN 1 30 Aug 01:53:16 01:56:56 27° 296° (WNW) 02:00:33 437.675
BEESAT 3 30 Aug 01:55:03 01:57:50 18° 246° (WSW) 02:00:30 437.485
UNISAT 6 30 Aug 01:55:43 01:58:15 14° 304° (NW) 02:00:37 437.425
POPSAT HIP 1 30 Aug 01:56:49 02:00:25 26° 296° (WNW) 02:03:56 437.405
DUCHIFAT 1 30 Aug 01:59:19 02:02:52 25° 296° (WNW) 02:06:21 145.980
BEESAT 2 30 Aug 02:03:41 02:06:39 19° 245° (WSW) 02:09:28 435.950
SPROUT 30 Aug 02:05:30 02:08:08 15° 273° (W) 02:10:39 437.525
SO-50 30 Aug 02:05:33 02:09:38 29° 117° (ESE) 02:13:53 436.795
CUSAT 1 30 Aug 02:13:15 02:17:05 36° 296° (WNW) 02:22:04 437.405
QB50P2 30 Aug 02:13:39 02:16:41 19° 299° (WNW) 02:19:37 145.880/145.840
NANOSAT C BR1 30 Aug 02:16:27 02:19:27 18° 299° (WNW) 02:22:19 145.865
BUGSAT 1 30 Aug 02:16:36 02:20:07 25° 296° (WNW) 02:23:35 437.445
AUBIESAT-1 30 Aug 02:17:05 02:19:10 13° 311° (NW) 02:21:02 437.475
M-CUBED/EXP-1 PRIME 30 Aug 02:20:42 02:22:14 12° 313° (NW) 02:23:36 437.505
AIST 2 30 Aug 02:24:07 02:28:11 48° 237° (WSW) 02:32:10 435.215
DANDE 30 Aug 02:25:38 02:29:04 38° 293° (WNW) 02:33:35 436.750
QB50P1 30 Aug 02:29:41 02:32:03 14° 302° (WNW) 02:34:17 145.935-145.965
ITUPSAT 1 30 Aug 02:29:54 02:34:40 70° 257° (WSW) 02:39:28 437.325
Cosmos 2504 30 Aug 02:36:13 02:43:07 27° 303° (WNW) 02:50:04 435.465 / 435.565
Oscar 19 30 Aug 02:42:33 02:47:38 51° 99° (E) 02:52:43 437.125/150
GONETS M04 30 Aug 02:50:51 02:58:20 35° 84° (E) 03:06:00
JAS-2 30 Aug 02:56:56 03:01:25 18° 80° (E) 03:05:53 435.910
STARS 30 Aug 03:00:14 03:04:07 31° 65° (ENE) 03:08:04 437.465
BEESAT 30 Aug 03:05:10 03:09:32 34° 264° (W) 03:13:52 436.000
Gurwin Techsat 1B 30 Aug 03:06:34 03:11:11 30° 93° (E) 03:15:50 435.225
MOZHAYETS 4 30 Aug 03:12:32 03:14:41 13° 56° (NE) 03:16:59
KKS-1 30 Aug 03:12:52 03:17:16 63° 71° (ENE) 03:21:44 437.445
Cosmos 2499 30 Aug 03:18:10 03:22:07 15° 70° (ENE) 03:26:38 435.465 / 435.565
PCSat 30 Aug 03:21:40 03:26:59 60° 120° (ESE) 03:32:21 145.827
RS-15 30 Aug 03:31:30 03:42:18 43° 249° (WSW) 03:53:14 29.354- 29.394
SWISSCUBE 30 Aug 03:32:02 03:35:31 19° 271° (W) 03:38:53 437.505
ITAMSAT 1 30 Aug 03:36:45 03:41:40 42° 98° (E) 03:46:36 435.822/435.867
SO-50 30 Aug 03:45:08 03:49:56 57° 317° (NW) 03:54:52 436.795
O/OREOS (USA 219) 30 Aug 03:53:39 03:56:29 16° 40° (NE) 03:59:25 437.305
HORYU 2 30 Aug 04:12:16 04:14:15 13° 86° (E) 04:16:26 437.375
AO-7 30 Aug 04:18:24 04:25:02 27° 90° (E) 04:31:52 29.400- 29.500
Oscar 19 30 Aug 04:22:20 04:26:46 28° 298° (WNW) 04:31:07 437.125/150
STARS 30 Aug 04:36:28 04:40:30 34° 264° (W) 04:44:35 437.465
JAS-2 30 Aug 04:40:31 04:47:56 81° 104° (ESE) 04:54:27 435.910
GONETS M04 30 Aug 04:46:09 04:54:46 64° 286° (WNW) 05:03:27
Gurwin Techsat 1B 30 Aug 04:46:18 04:51:24 47° 293° (WNW) 04:56:28 435.225
MOZHAYETS 4 30 Aug 04:46:36 04:51:14 81° 75° (ENE) 04:55:52
KKS-1 30 Aug 04:51:20 04:54:23 17° 271° (W) 04:57:18 437.445
CUBESAT XI-V 30 Aug 05:00:06 05:02:37 15° 58° (ENE) 05:05:18 437.345
Cosmos 2499 30 Aug 05:05:15 05:13:32 61° 92° (E) 05:22:15 435.465 / 435.565
PCSat 30 Aug 05:05:49 05:10:45 34° 322° (NW) 05:15:40 145.827
ITAMSAT 1 30 Aug 05:16:28 05:21:07 33° 297° (WNW) 05:25:41 435.822/435.867
SO-50 30 Aug 05:27:47 05:31:30 20° 340° (NNW) 05:35:12 436.795
O/OREOS (USA 219) 30 Aug 05:32:05 05:36:44 79° 62° (ENE) 05:41:21 437.305
STRAND 1 30 Aug 05:38:54 05:41:21 14° 53° (NE) 05:43:59 437.568
HORYU 2 30 Aug 05:47:04 05:51:35 84° 286° (WNW) 05:56:02 437.375
AO-7 30 Aug 06:10:32 06:18:53 83° 292° (WNW) 06:27:11 29.400- 29.500
YUBILEINY 30 Aug 06:12:06 06:15:11 12° 37° (NE) 06:18:43 435.215
PRISM 30 Aug 06:18:29 06:20:54 16° 59° (ENE) 06:23:25 437.425
JAS-2 30 Aug 06:26:13 06:32:13 27° 306° (NW) 06:37:37 435.910
MOZHAYETS 4 30 Aug 06:26:34 06:29:07 14° 274° (W) 06:31:28
CUBESAT XI-V 30 Aug 06:34:52 06:39:29 88° 256° (WSW) 06:44:07 437.345
Cubesat XI-IV 30 Aug 06:40:32 06:44:15 19° 88° (E) 06:48:06 437.490
GONETS M04 30 Aug 06:48:09 06:53:53 18° 313° (NW) 06:59:20
PCSat 30 Aug 06:52:46 06:55:51 15° 346° (NNW) 06:58:54 145.827
Cosmos 2499 30 Aug 06:59:13 07:07:13 40° 296° (WNW) 07:15:26 435.465 / 435.565
SO-50 30 Aug 07:10:50 07:13:48 15° 4° (N) 07:16:46 436.795
O/OREOS (USA 219) 30 Aug 07:12:57 07:15:36 15° 260° (W) 07:18:04 437.305
STRAND 1 30 Aug 07:14:42 07:19:46 72° 72° (ENE) 07:24:53 437.568
HORYU 2 30 Aug 07:25:19 07:27:33 13° 304° (NW) 07:29:39 437.375
CUTE-I 30 Aug 07:25:20 07:30:24 43° 98° (E) 07:35:29 437.470
VERMONT LUNAR 30 Aug 07:37:06 07:38:40 13° 182° (S) 07:40:14 437.305
PRISM 30 Aug 07:51:48 07:55:52 69° 257° (WSW) 07:59:59 437.425
GOMX 1 30 Aug 07:52:14 07:54:21 12° 82° (E) 07:56:46 467.674
AIST 1 30 Aug 07:58:06 08:00:13 14° 84° (E) 08:02:31
AO-7 30 Aug 08:04:06 08:10:43 27° 314° (NW) 08:17:07 29.400- 29.500
YUBILEINY 30 Aug 08:06:57 08:15:16 43° 66° (ENE) 08:23:36 435.215
DOVE 4 30 Aug 08:15:19 08:17:18 12° 82° (E) 08:19:34 437.250
CUBESAT XI-V 30 Aug 08:15:51 08:17:43 12° 276° (W) 08:19:21 437.345
Cubesat XI-IV 30 Aug 08:19:39 08:24:59 73° 288° (WNW) 08:30:17 437.490
Cosmos 2504 30 Aug 08:32:29 08:35:22 12° 39° (NE) 08:38:39 435.465 / 435.565
PCSat 30 Aug 08:38:35 08:41:33 15° 12° (NNE) 08:44:34 145.827
BRITE-PL 30 Aug 08:49:33 08:54:51 55° 99° (E) 09:00:24 437.365/2234.400
SO-50 30 Aug 08:51:46 08:55:57 26° 28° (NNE) 09:00:08 436.795
SEEDS 30 Aug 08:51:56 08:52:57 11° 84° (E) 08:54:11 437.485
STRAND 1 30 Aug 08:55:59 08:59:35 19° 272° (W) 09:03:02 437.568
Cosmos 2499 30 Aug 09:00:31 09:03:42 12° 324° (NW) 09:06:29 435.465 / 435.565
Cosmos 2491 30 Aug 09:00:33 09:08:01 35° 84° (E) 09:15:39 435.465 / 435.565
CUTE-I 30 Aug 09:05:38 09:10:24 34° 297° (WNW) 09:15:07 437.470
CINEMA 3 30 Aug 09:13:35 09:16:56 18° 86° (E) 09:20:25 145.822/145.860
COMPASS 1 30 Aug 09:15:50 09:18:15 15° 88° (E) 09:20:47 437.405
CUSAT 1 30 Aug 09:18:47 09:22:02 14° 47° (NE) 09:25:51 437.405
PHONESAT 2.4 30 Aug 09:20:44 09:22:56 16° 176° (S) 09:25:08 2401.200-2431.200
HO-68 30 Aug 09:24:03 09:30:39 38° 95° (E) 09:37:17 435.675
AAUSAT CUBESAT 2 30 Aug 09:27:29 09:30:11 17° 89° (E) 09:32:58 437.432
GOMX 1 30 Aug 09:28:03 09:33:27 73° 101° (E) 09:38:58 467.674
AIST 1 30 Aug 09:33:08 09:37:22 68° 282° (WNW) 09:41:38
DANDE 30 Aug 09:33:51 09:36:00 12° 47° (NE) 09:38:40 436.750
UNISAT 6 30 Aug 09:45:13 09:48:47 22° 61° (ENE) 09:52:28 437.425
CUTE 1.7 + AOD 2 30 Aug 09:46:48 09:50:55 46° 98° (E) 09:55:00 437.475
DOVE 4 30 Aug 09:50:43 09:56:02 74° 102° (ESE) 10:01:21 437.250
ISS 30 Aug 09:52:51 09:54:02 12° 137° (SE) 09:55:18 145.825
AUBIESAT-1 30 Aug 09:57:31 10:01:50 37° 61° (ENE) 10:06:07 437.475
AO-7 30 Aug 09:59:15 10:00:41 10° 340° (NNW) 10:01:55 29.400- 29.500
CANX-2 30 Aug 10:00:27 10:04:43 71° 102° (ESE) 10:08:55 2200.000
M-CUBED/EXP-1 PRIME 30 Aug 10:00:47 10:05:20 45° 63° (ENE) 10:09:50 437.505
QB50P2 30 Aug 10:01:15 10:03:00 13° 56° (ENE) 10:04:54 145.880/145.840
Cubesat XI-IV 30 Aug 10:01:20 10:04:17 15° 308° (NW) 10:07:04 437.490
NANOSAT C BR1 30 Aug 10:03:41 10:05:27 13° 57° (ENE) 10:07:22 145.865
YUBILEINY 30 Aug 10:03:53 10:12:26 54° 270° (W) 10:20:52 435.215
DELFI C3 30 Aug 10:05:18 10:06:57 12° 86° (E) 10:08:46 145.870
TIGRISAT 30 Aug 10:13:41 10:17:57 36° 66° (ENE) 10:22:16 435.000
QB50P1 30 Aug 10:15:38 10:18:13 16° 59° (ENE) 10:20:55 145.935-145.965
Oscar 11 30 Aug 10:21:16 10:24:59 28° 93° (E) 10:28:44 145.826/435.025
PCSat 30 Aug 10:21:51 10:26:42 32° 37° (NE) 10:31:34 145.827
Cosmos 2504 30 Aug 10:22:36 10:30:40 42° 66° (ENE) 10:38:26 435.465 / 435.565
SEEDS 30 Aug 10:25:14 10:29:28 89° 288° (WNW) 10:33:39 437.485
BRITE-PL 30 Aug 10:28:32 10:33:07 29° 296° (WNW) 10:37:48 437.365/2234.400
ANTELSAT 30 Aug 10:29:40 10:34:12 51° 70° (ENE) 10:38:48 437.575/2403.000
SO-50 30 Aug 10:32:07 10:37:09 90° 175° (S) 10:42:02 436.795
CINEMA 3 30 Aug 10:49:40 10:54:43 73° 287° (WNW) 10:59:40 145.822/145.860
COMPASS 1 30 Aug 10:50:14 10:54:23 63° 287° (WNW) 10:58:28 437.405
CUBEBUG 2 30 Aug 10:52:05 10:56:49 63° 101° (E) 11:01:24 437.445
Cosmos 2491 30 Aug 10:55:48 11:04:27 65° 286° (WNW) 11:13:08 435.465 / 435.565
PHONESAT 2.4 30 Aug 10:58:20 11:00:04 13° 193° (SSW) 11:01:45 2401.200-2431.200
CUSAT 1 30 Aug 10:59:23 11:06:23 48° 69° (ENE) 11:14:18 437.405
ZACube-1 30 Aug 11:00:04 11:04:28 46° 98° (E) 11:08:46 437.345
AAUSAT CUBESAT 2 30 Aug 11:02:05 11:06:10 55° 288° (WNW) 11:10:11 437.432
UWE-3 30 Aug 11:02:50 11:07:29 63° 101° (E) 11:12:00 435.000/436.395/437.385
FUNcube-1 30 Aug 11:06:16 11:10:44 51° 99° (E) 11:15:04 145.935
GOMX 1 30 Aug 11:06:58 11:11:07 23° 300° (WNW) 11:15:14 467.674
HO-68 30 Aug 11:11:41 11:18:42 55° 296° (WNW) 11:25:39 435.675
POLYITAN 1 30 Aug 11:14:15 11:18:24 53° 71° (ENE) 11:22:38 437.675
DANDE 30 Aug 11:14:19 11:20:55 44° 69° (ENE) 11:28:45 436.750
POPSAT HIP 1 30 Aug 11:17:33 11:21:43 56° 71° (ENE) 11:25:56 437.405
DUCHIFAT 1 30 Aug 11:19:37 11:23:46 56° 72° (ENE) 11:27:59 145.980
UNISAT 6 30 Aug 11:20:34 11:25:12 58° 260° (W) 11:29:54 437.425
CUTE 1.7 + AOD 2 30 Aug 11:23:15 11:26:35 22° 297° (WNW) 11:29:49 437.475
ISS 30 Aug 11:26:43 11:29:53 51° 154° (SSE) 11:33:03 145.825
DOVE 4 30 Aug 11:29:17 11:33:17 22° 300° (WNW) 11:37:12 437.250
AUBIESAT-1 30 Aug 11:32:08 11:36:31 35° 258° (WSW) 11:40:48 437.475
QB50P2 30 Aug 11:33:58 11:38:14 83° 75° (ENE) 11:42:33 145.880/145.840
BUGSAT 1 30 Aug 11:35:06 11:39:03 52° 70° (ENE) 11:43:06 437.445
M-CUBED/EXP-1 PRIME 30 Aug 11:35:58 11:40:12 30° 260° (W) 11:44:20 437.505
NANOSAT C BR1 30 Aug 11:36:23 11:40:38 84° 73° (ENE) 11:44:56 145.865
CANX-2 30 Aug 11:37:31 11:40:10 16° 300° (WNW) 11:42:41 2200.000
DELFI C3 30 Aug 11:38:34 11:42:35 73° 286° (WNW) 11:46:33 145.870
ESTCUBE 1 30 Aug 11:42:27 11:45:14 16° 88° (E) 11:48:10 437.505/2401.250
DX 1 30 Aug 11:46:17 11:50:13 32° 96° (E) 11:54:11 434.975-435.025
QB50P1 30 Aug 11:49:20 11:53:35 72° 257° (WSW) 11:57:53 145.935-145.965
TIGRISAT 30 Aug 11:50:26 11:54:42 33° 265° (W) 11:58:58 435.000
Oscar 11 30 Aug 11:57:16 12:01:15 36° 292° (WNW) 12:05:10 145.826/435.025
HUMSAT D 30 Aug 11:59:32 12:03:50 75° 102° (ESE) 12:08:03 437.325/437.525
AISAT 30 Aug 12:01:20 12:05:19 31° 95° (E) 12:09:21 437.250
UKube-1 30 Aug 12:01:33 12:05:40 40° 98° (E) 12:09:46 .
SEEDS 30 Aug 12:02:42 12:04:39 13° 302° (WNW) 12:06:26 437.485
YUBILEINY 30 Aug 12:04:02 12:07:20 12° 292° (WNW) 12:10:02 435.215
PCSat 30 Aug 12:05:09 12:10:33 64° 239° (WSW) 12:15:54 145.827
ANTELSAT 30 Aug 12:07:27 12:11:16 23° 269° (W) 12:15:01 437.575/2403.000
CUBEBUG 1 30 Aug 12:07:31 12:11:02 23° 92° (E) 12:14:37 437.445
SO-50 30 Aug 12:13:54 12:17:04 17° 249° (WSW) 12:20:01 436.795
Cosmos 2504 30 Aug 12:14:53 12:23:13 55° 270° (W) 12:31:04 435.465 / 435.565
Oscar 19 30 Aug 12:26:35 12:30:20 21° 58° (ENE) 12:34:13 437.125/150
CINEMA 3 30 Aug 12:28:31 12:31:06 14° 305° (NW) 12:33:29 145.822/145.860
50 SAT 30 Aug 12:29:25 12:33:20 69° 102° (ESE) 12:37:10 437.505
CUBEBUG 2 30 Aug 12:29:31 12:33:04 21° 300° (WNW) 12:36:29 437.445
VELOX 1 30 Aug 12:29:50 12:34:15 56° 101° (E) 12:38:39 145.980
ZACube-1 30 Aug 12:36:50 12:40:35 25° 297° (WNW) 12:44:13 437.345
UWE-3 30 Aug 12:40:09 12:43:35 20° 300° (WNW) 12:46:51 435.000/436.395/437.385
CUSAT 1 30 Aug 12:41:58 12:49:03 49° 266° (W) 12:56:50 437.405
FUNcube-1 30 Aug 12:43:08 12:46:44 23° 298° (WNW) 12:50:12 145.935
POLYITAN 1 30 Aug 12:51:31 12:54:39 19° 270° (W) 12:57:42 437.675
GONETS M04 30 Aug 12:54:03 13:00:45 24° 54° (NE) 13:07:44
POPSAT HIP 1 30 Aug 12:54:58 12:57:58 18° 271° (W) 13:00:53 437.405
Gurwin Techsat 1B 30 Aug 12:55:31 12:58:13 15° 53° (NE) 13:01:07 435.225
DUCHIFAT 1 30 Aug 12:57:00 12:59:57 18° 271° (W) 13:02:49 145.980
DANDE 30 Aug 12:57:22 13:04:13 52° 265° (W) 13:12:12 436.750
Cosmos 2491 30 Aug 12:57:46 13:03:34 18° 313° (NW) 13:09:02 435.465 / 435.565
HO-68 30 Aug 13:00:53 13:05:04 16° 318° (NW) 13:09:01 435.675
ISS 30 Aug 13:03:00 13:06:15 68° 353° (N) 13:09:30 145.825
BUGSAT 1 30 Aug 13:12:00 13:14:52 18° 270° (W) 13:17:41 437.445
QB50P2 30 Aug 13:12:56 13:14:48 12° 275° (W) 13:16:27 145.880/145.840
JAS-2 30 Aug 13:13:58 13:19:02 20° 48° (NE) 13:24:20 435.910
NANOSAT C BR1 30 Aug 13:15:22 13:17:08 12° 275° (W) 13:18:43 145.865
ESTCUBE 1 30 Aug 13:18:08 13:22:37 67° 288° (WNW) 13:27:05 437.505/2401.250
TISAT 1 30 Aug 13:20:22 13:23:50 24° 93° (E) 13:27:22 437.305
ITAMSAT 1 30 Aug 13:22:07 13:25:36 19° 56° (ENE) 13:29:13 435.822/435.867
DX 1 30 Aug 13:22:31 13:26:28 33° 294° (WNW) 13:30:23 434.975-435.025
AO-7 30 Aug 13:33:42 13:38:53 19° 37° (NE) 13:44:18 29.400- 29.500
HUMSAT D 30 Aug 13:36:27 13:39:03 16° 301° (WNW) 13:41:31 437.325/437.525
AISAT 30 Aug 13:37:50 13:41:55 35° 294° (WNW) 13:45:58 437.250
UKube-1 30 Aug 13:37:58 13:41:38 26° 297° (WNW) 13:45:15 .
CUBEBUG 1 30 Aug 13:43:23 13:47:37 45° 291° (WNW) 13:51:50 437.445
SPROUT 30 Aug 13:45:05 13:49:27 70° 102° (ESE) 13:53:47 437.525
SWISSCUBE 30 Aug 13:50:28 13:51:44 11° 84° (E) 13:53:16 437.505
PCSat 30 Aug 13:51:22 13:53:02 11° 257° (WSW) 13:54:24 145.827
Oscar 19 30 Aug 14:04:03 14:09:12 73° 256° (WSW) 14:14:27 437.125/150
50 SAT 30 Aug 14:05:12 14:07:23 14° 300° (WNW) 14:09:26 437.505
VELOX 1 30 Aug 14:07:04 14:10:28 21° 299° (WNW) 14:13:47 145.980
Cosmos 2504 30 Aug 14:10:07 14:13:34 13° 291° (WNW) 14:16:27 435.465 / 435.565
ITUPSAT 1 30 Aug 14:26:22 14:30:00 22° 91° (E) 14:33:44 437.325
CUSAT 1 30 Aug 14:28:02 14:30:23 11° 284° (WNW) 14:32:14 437.405
Gurwin Techsat 1B 30 Aug 14:32:07 14:37:23 71° 72° (ENE) 14:42:43 435.225
ISS 30 Aug 14:39:31 14:42:47 84° 10° (N) 14:46:03 145.825
DANDE 30 Aug 14:43:36 14:46:21 12° 281° (WNW) 14:48:42 436.750
GONETS M04 30 Aug 14:50:20 14:59:12 84° 79° (E) 15:08:04
Cosmos 2499 30 Aug 14:51:09 14:58:46 32° 59° (ENE) 15:06:11 435.465 / 435.565
JAS-2 30 Aug 14:55:11 15:02:47 64° 68° (ENE) 15:10:33 435.910
TISAT 1 30 Aug 14:55:43 14:59:46 41° 292° (WNW) 15:03:46 437.305
ESTCUBE 1 30 Aug 14:57:22 14:58:43 11° 306° (NW) 14:59:53 437.505/2401.250
ITAMSAT 1 30 Aug 14:59:22 15:04:33 83° 253° (WSW) 15:09:47 435.822/435.867
BEESAT 30 Aug 15:00:05 15:04:38 43° 98° (E) 15:09:11 436.000
HORYU 2 30 Aug 15:14:16 15:17:46 23° 62° (ENE) 15:21:20 437.375
AO-7 30 Aug 15:22:03 15:30:05 56° 61° (ENE) 15:38:10 29.400- 29.500
SPROUT 30 Aug 15:22:13 15:25:04 17° 300° (WNW) 15:27:48 437.525
SWISSCUBE 30 Aug 15:25:42 15:30:29 79° 103° (ESE) 15:35:15 437.505
Oscar 19 30 Aug 15:47:52 15:49:38 11° 278° (W) 15:51:08 437.125/150
BEESAT 3 30 Aug 15:50:43 15:54:03 25° 118° (ESE) 15:57:29 437.485
RS-15 30 Aug 15:51:14 15:59:10 25° 102° (ESE) 16:07:46 29.354- 29.394
BEESAT 2 30 Aug 16:00:32 16:03:51 24° 117° (ESE) 16:07:15 435.950
ITUPSAT 1 30 Aug 16:03:36 16:08:16 55° 290° (WNW) 16:12:54 437.325
Gurwin Techsat 1B 30 Aug 16:14:07 16:17:59 20° 272° (W) 16:21:44 435.225
ISS 30 Aug 16:16:05 16:18:58 29° 213° (SSW) 16:21:50 145.825
STARS 30 Aug 16:21:09 16:25:07 31° 95° (E) 16:29:06 437.465
AIST 2 30 Aug 16:28:44 16:30:03 11° 111° (ESE) 16:31:34 435.215
Cubesat XI-IV 30 Aug 16:32:08 16:32:50 10° 48° (NE) 16:33:47 437.490
KKS-1 30 Aug 16:35:41 16:40:12 67° 102° (ESE) 16:44:40 437.445
BEESAT 30 Aug 16:38:14 16:42:20 29° 297° (WNW) 16:46:22 436.000
MOZHAYETS 4 30 Aug 16:38:31 16:40:50 14° 86° (E) 16:43:21
JAS-2 30 Aug 16:41:12 16:48:15 36° 269° (W) 16:55:20 435.910
ITAMSAT 1 30 Aug 16:42:28 16:45:00 13° 276° (W) 16:47:16 435.822/435.867
Cosmos 2499 30 Aug 16:44:07 16:52:56 75° 264° (W) 17:01:10 435.465 / 435.565
GONETS M04 30 Aug 16:48:15 16:55:08 26° 281° (W) 17:01:47
HORYU 2 30 Aug 16:49:42 16:54:06 51° 260° (W) 16:58:32 437.375
SWISSCUBE 30 Aug 17:04:39 17:07:49 18° 303° (WNW) 17:10:52 437.505
CUTE-I 30 Aug 17:13:54 17:17:41 21° 57° (ENE) 17:21:36 437.470
AO-7 30 Aug 17:15:17 17:23:11 43° 262° (W) 17:31:01 29.400- 29.500
BEESAT 3 30 Aug 17:27:49 17:31:47 48° 317° (NW) 17:35:46 437.485
BEESAT 2 30 Aug 17:37:39 17:41:40 50° 316° (NW) 17:45:42 435.950
ITUPSAT 1 30 Aug 17:44:52 17:45:13 10° 309° (NW) 17:45:22 437.325
